Date,TemperatureHighF,TemperatureAvgF,TemperatureLowF,DewpointHighF,DewpointAvgF,DewpointLowF,HumidityHigh,HumidityAvg,HumidityLow,PressureMaxIn,PressureMinIn,WindSpeedMaxMPH,WindSpeedAvgMPH,GustSpeedMaxMPH,PrecipitationSumIn
2013-2-1,45,42,39,40,38,36,95,87,73,30.16,29.83,13,5,13,0.10
2013-2-2,42,36,31,36,29,26,88,76,57,30.64,30.05,14,3,14,0.00
2013-2-3,50,42,31,45,38,28,91,87,82,30.64,30.24,17,6,17,0.00
2013-2-4,50,46,39,46,38,33,92,75,56,30.29,30.03,22,10,22,0.10
2013-2-5,42,38,34,39,32,27,92,82,62,30.03,29.68,22,8,22,0.17
2013-2-6,41,38,34,38,32,27,95,80,66,30.49,29.76,18,5,18,0.09
2013-2-7,39,36,32,35,32,27,94,86,74,30.51,30.38,8,2,8,0.04
2013-2-8,43,36,31,38,33,30,96,89,79,30.57,30.44,9,1,9,0.00
2013-2-9,38,36,32,36,34,31,96,94,88,30.56,30.23,7,2,7,0.27
2013-2-10,40,36,32,39,35,31,97,96,92,30.22,29.66,17,6,17,0.93
2013-2-11,34,33,32,32,31,30,96,93,88,30.23,29.70,13,6,13,0.11
2013-2-12,34,33,32,31,28,27,93,83,76,30.54,30.23,9,4,9,0.01
2013-2-13,37,33,31,36,30,25,95,88,75,30.56,30.25,17,6,17,0.14
2013-2-14,50,43,37,44,40,36,97,89,73,30.36,30.08,15,4,15,0.47
2013-2-15,49,42,34,40,37,33,95,84,69,30.58,30.36,7,2,7,0.00
2013-2-16,49,39,30,41,36,29,97,89,65,30.63,30.56,8,1,8,0.00
2013-2-17,48,38,31,39,35,30,97,87,58,30.59,30.49,10,3,10,0.00
2013-2-18,45,38,31,37,34,30,95,86,72,30.54,30.50,12,4,12,0.00
2013-2-19,52,36,26,38,32,25,98,86,55,30.54,30.45,10,1,10,0.00
2013-2-20,39,35,32,36,31,25,97,84,71,30.69,30.52,20,9,20,0.00
2013-2-21,35,33,31,26,24,20,77,69,61,30.69,30.62,18,10,18,0.00
2013-2-22,33,32,31,27,24,22,79,73,66,30.62,30.56,16,6,16,0.00
2013-2-23,36,33,31,30,28,25,91,82,71,30.66,30.55,12,3,12,0.00
2013-2-24,36,33,32,30,28,26,90,82,71,30.75,30.65,10,4,10,0.00
2013-2-25,39,37,33,36,34,29,94,89,83,30.86,30.73,15,6,15,0.00
2013-2-26,39,37,35,37,35,34,96,93,88,31.02,30.85,16,7,16,0.00
2013-2-27,45,38,34,36,34,32,93,86,68,31.03,30.93,14,6,14,0.00
2013-2-28,47,38,32,36,32,28,95,81,53,30.94,30.80,13,4,13,0.01